sat.trackr.live / text

‹ back to catalog

STARLINK-6224

NORAD 56425 · 2023-061BD

PAYLOAD ACTIVE UNKNOWN

§ Identity

Operator
Country
US
Launch date
2023-05-04
Launch site
AFETR
Launch vehicle
Mass (kg)
RCS (m²)

Purposes: comms

External: N2YO · Heavens-Above · Gunter

§ Orbital elements

Epoch: 2026-05-25T03:48:10.026432Z

Period
94.32 min
Inclination
43.0065°
Eccentricity
0.0001468
Mean motion
15.26741899 rev/d
Perigee alt
484.6 km
Apogee alt
486.6 km
Semi-major
6,863.7 km
B*
3.0711e-5
RAAN
107.7794°
Arg perigee
293.5244°
Mean anomaly
66.5453°
Rev number
16,865

§ Raw data

STARLINK-62241 56425U 23061BD  26145.15844938  .00000564  00000+0  30711-4 0  99942 56425  43.0065 107.7794 0001468 293.5244  66.5453 15.26741899168652

JSON: /api/v1/satellites/56425 · /tle

For live sub-satellite position, see the globe view (requires WebGL).

§ Visibility from observer

Set your observer location to see the next 7 days of passes ≥ 10°. The values pass through the URL so the page stays shareable.

No JS? Fill the form by hand. The geolocation button needs JavaScript.